Regional Weather Roundup
Issued by NWS

Home | Current Version | Previous Version | Graphics & Text | Print | Product List | Glossary On
Versions: 1 2 3 4 5 6 7 8 9 10 11 12 13 14 15 16 17 18 19 20 21 22 23 24 25 26 27 28 29 30 31 32 33 34 35 36 37 38 39 40 41 42 43 44 45 46 47 48 49 50
045
ASUS43 KMKX 291100
RWRWI

WISCONSIN REGIONAL WEATHER ROUNDUP
NATIONAL WEATHER SERVICE MILWAUKEE/SULLIVAN WI
600 AM CDT MON MAY 29 2017

NOTE: "FAIR" INDICATES FEW OR NO CLOUDS BELOW 12,000 FEET WITH NO
SIGNIFICANT WEATHER AND/OR OBSTRUCTIONS TO VISIBILITY.

WIZ001-002-006>008-014>016-023>028-291200-
NORTHWEST WISCONSIN

CITY           SKY/WX    TMP DP  RH WIND       PRES   REMARKS
SUPERIOR ARPT  NOT AVBL
ASHLAND        CLOUDY    51  48  89 SW8       29.63R
HAYWARD        CLOUDY    51  48  89 VRB3      29.67R
SIREN          CLOUDY    52  49  89 W8        29.70R
CUMBERLAND     CLOUDY    50  46  87 W10       29.69S
RICE LAKE      CLOUDY    51  49  90 W7        29.70R
CHETEK         CLOUDY    51  49  92 W5        29.70R
LADYSMITH      CLOUDY    50  48  92 SW6       29.69R
EAU CLAIRE     CLOUDY    53  49  86 W9        29.69S
MENOMONIE      CLOUDY    54  50  87 W9        29.71S
NEW RICHMOND   CLOUDY    52  50  92 W10       29.74R
OSCEOLA        CLOUDY    52  52 100 W9        29.76R
$$

WIZ003>005-009-010-017-018-291200-
NORTH CENTRAL WISCONSIN

CITY           SKY/WX    TMP DP  RH WIND       PRES   REMARKS
MANITOWISH WTR CLOUDY    47  47 100 SW5       29.63R
ARBOR VITAE    PTCLDY    49  47  93 SW3       29.63R
WOODRUFF       PTCLDY    49  47  93 SW3       29.63R
RHINELANDER    CLEAR     49  46  90 W6        29.65R
EAGLE RIVER    PTCLDY    46  46 100 SW7       29.63R
LAND O LAKES   MOCLDY    47  47  99 SW3       29.63S
PHILLIPS       MOCLDY    47  47  97 W7        29.65R
TOMAHAWK       CLOUDY    47  45  92 CALM      29.67R
MEDFORD        PTCLDY    48  46  93 W5        29.67S
MERRILL        CLOUDY    50  48  92 W5        29.67R
$$

WIZ029-030-035-036-043>047-291200-
CENTRAL WISCONSIN

CITY           SKY/WX    TMP DP  RH WIND       PRES   REMARKS
WAUSAU         PTCLDY    50  48  93 SW5       29.67R
MOSINEE        PTCLDY    48  48 100 SW8       29.70R
MARSHFIELD     CLOUDY    49  45  86 W6        29.69R
STEVENS POINT  PTCLDY    49  47  90 SW7       29.70R
WAUPACA        CLEAR     53  50  92 SW6       29.69S
WAUTOMA        CLEAR     51  47  86 SW7       29.72R
WISC RAPIDS    PTCLDY    50  46  86 SW6       29.71R
CAMP DOUGLAS   MOCLDY    53  47  79 SW12      29.73R HAZE
$$

WIZ011>013-019>022-031-037>040-048>050-291200-
NORTHEAST WISCONSIN

CITY           SKY/WX    TMP DP  RH WIND       PRES   REMARKS
ANTIGO         PTCLDY    46  46  99 W6        29.67R
SHAWANO        CLOUDY    54  49  85 CALM      29.67S
OCONTO         PTCLDY    51  47  86 W6        29.66R
STURGEON BAY   CLEAR     55  49  80 SW7       29.67S
GREEN BAY      RAIN      55  51  86 SW5       29.67S FOG
MANITOWOC      NOT AVBL
APPLETON       NOT AVBL
CLINTONVILLE   CLOUDY    54  46  76 W5        29.67S
OSHKOSH        PTCLDY    53  47  79 SW6       29.70R
$$

WIZ032>034-041-042-053>061-291200-
SOUTHWEST WISCONSIN

CITY           SKY/WX    TMP DP  RH WIND       PRES   REMARKS
LA CROSSE      CLEAR     56  46  69 W9        29.76R
SPARTA         PTCLDY    41  40  99 CALM      29.74R
VIROQUA        CLEAR     50  44  79 CALM      29.76R
BOSCOBEL       CLEAR     52  48  86 SW5       29.81R
PRAIRIE DU CHI MOCLDY    57  43  60 SW6       29.81R
PLATTEVILLE    CLOUDY    55  49  81 SW9       29.82R
$$

WIZ056-057-062-063-064-067-068-291200-
SOUTH CENTRAL WISCONSIN

CITY           SKY/WX    TMP DP  RH WIND       PRES   REMARKS
REEDSBURG      CLEAR     47  47 100 SW3       29.75R
BARABOO/DELLS  CLEAR     50  44  80 SW7       29.75R
LONE ROCK      NOT AVBL
MINERAL POINT  CLOUDY    55  46  71 SW8       29.80R
MADISON        MOCLDY    57  44  62 VRB5      29.76R
MIDDLETON      MOCLDY    55  45  67 W8        29.77R
WATERTOWN      CLOUDY    55  49  79 SW7       29.74R
MONROE         CLOUDY    57  45  62 SW13      29.80R
JANESVILLE     PTCLDY    57  46  67 W6        29.78R
$$

WIZ051-052-058>065-066-070>072-291200-
SOUTHEAST WISCONSIN

CITY           SKY/WX    TMP DP  RH WIND       PRES   REMARKS
MILWAUKEE      PTCLDY    60  48  64 SW10      29.75R
WAUKESHA       PTCLDY    54  45  71 SW7       29.75S
MILWAUKEE/TIMM   N/A     54  45  71 SW8       29.74R
RACINE         PTCLDY    59  47  64 W8        29.76R
KENOSHA        CLEAR     57  49  74 W12       29.76R
FOND DU LAC    CLEAR     53  47  79 SW6       29.72R
SHEBOYGAN      PTCLDY    51  49  92 CALM      29.71R
WEST BEND      CLEAR     50  46  87 CALM      29.72S
JUNEAU         MOCLDY    51  47  84 SW8       29.74R
$$

LSZ147-162-291200-
LAKE SUPERIOR

STATION/POSITION TIME  TEMP    WIND        PRES    WAVE
                       AIR SEA DIR/SP/G            HT/PER
                 (UTC) (F)     (DEG/KT/KT) (MB)    (FT/S)
W MID LAKE BUOY  0950   41 37  260/  4/  6 1001.6R   1
DEVILS ISLAND    1000   47     230/ 17/ 18 1002.2R
PORT WING        1040   54     240/ 11/ 15 1003.4S
SAXON HARBOR     1040   53     230/  7/ 11 1002.7S
$$

LMZ867-665-643>646-291200-
LAKE MICHIGAN

STATION/POSITION TIME  TEMP    WIND        PRES    WAVE
                       AIR SEA DIR/SP/G            HT/PER
                 (UTC) (F)     (DEG/KT/KT) (MB)    (FT/S)
CHAMBERS ISLAND  1040   53     200/  4/  7 1004.1R
N MID LAKE BUOY  0950   42 41  190/  6/  8 1004.3F   1/ 4
NORTHPORT PIER   1040   53     240/  4/  8 1004.1R
SISTER BAY       0906   55     260/ 11/ 13   N/A
KEWAUNEE LAKESHO 1030   55     280/  3/  5 1004.6S
SHEBOYGAN LAKESH 1000   56     240/  7/  7 1005.4R
PORT WASHINGTON  1030   57     260/  6/  9 1007.1R
ATWATER BUOY     0909   56     230/  6/  8 1006.6F
MILWAUKEE LAKESH 1030   60     240/ 14/ 16   N/A
S MID LAKE BUOY  0950   52 47  240/ 10/ 10 1007.2R   0
KENOSHA   LAKESH 1000   60     240/  7/ 10 1007.5
$$

TC  - TEMPERATURE IN CELSIUS
VSB - VISIBILITY IN STATUTE MILES
WCI - WIND CHILL INDEX
HX  - HEAT INDEX





USA.gov is the U.S. government's official web portal to all federal, state and local government web resources and services.